Simultaneous Nadir Overpasses (SNOs) Predictions

Prediction of SNOs between GOES-16 and METOP-B Satellite Orbit:

Table of predicted SNOs for the next 14.0 days since TLE Epoch: 1/20/2017
Index Date Time (GOES-16) GOES-16 Lat,Lon METOP-B Lat,Lon Distance(km) Time Diff (sec)
1 01/21/2017 03:19:32 -0.01, -89.51 0.61, -86.72 318.61 80
2 01/22/2017 15:38:23 0.01, -89.59 0.40, -91.28 192.30 80
3 01/23/2017 15:15:04 0.01, -89.63 -0.75, -86.29 381.03 80
4 01/25/2017 03:34:03 -0.01, -89.66 -0.26, -90.88 138.73 80
5 01/26/2017 03:16:03 -0.01, -89.70 0.83, -85.88 434.90 80
6 01/27/2017 15:34:54 0.01, -89.78 0.17, -90.44 75.48 80
7 01/28/2017 15:11:35 0.02, -89.82 -0.97, -85.45 498.19 80
8 01/30/2017 03:30:33 -0.02, -89.85 -0.09, -90.03 21.31 80
9 02/01/2017 15:28:45 0.03, -89.98 -0.05, -89.60 42.97 80
10 02/03/2017 03:47:44 -0.02, -90.01 -0.94, -94.20 476.36 80




NCC Satellite Simultaneous Nadir Overpasses (SNOs) Prediction Service
